Regional Weather Roundup
Issued by NWS

Home | Current Version | Previous Version | Graphics & Text | Print | Product List | Glossary On
Versions: 1 2 3 4 5 6 7 8 9 10 11 12 13 14 15 16 17 18 19 20 21 22 23 24 25 26 27 28 29 30 31 32 33 34 35 36 37 38 39 40 41 42 43 44 45 46 47 48 49 50
000
ASUS43 KOAX 181802
RWRNE

WEATHER ROUNDUP FOR NEBRASKA
NATIONAL WEATHER SERVICE OMAHA NE
100 PM CDT FRI AUG 18 2017

NOTES: SATELLITE DATA IS BEING USED TO AUGMENT CLOUD COVER ABOVE
       12000 FEET.
       "FAIR" INDICATES FEW OR NO CLOUDS BELOW 12,000 FEET WITH NO
       SIGNIFICANT WEATHER AND/OR OBSTRUCTIONS TO VISIBILITY.


NEZ001>004-019>022-054>056-181900-
NEBRASKA PANHANDLE

CITY           SKY/WX    TMP DP  RH WIND       PRES   REMARKS
SCOTTSBLUFF    SUNNY     81  47  30 W6        30.13F
6HR MIN TEMP:  52; 6HR MAX TEMP:  81;

ALLIANCE       SUNNY     82  47  29 W10       30.10F
6HR MIN TEMP:  46; 6HR MAX TEMP:  82;

CHADRON        SUNNY     85  45  24 NW8       30.06F
6HR MIN TEMP:  50; 6HR MAX TEMP:  85;

GORDON         FAIR      82  46  28 NW14      30.07F
6HR MIN TEMP:  50; 6HR MAX TEMP:  82;

KIMBALL        SUNNY     80  45  29 S5        30.19F
SIDNEY         SUNNY     83  40  21 NW8       30.16F
6HR MIN TEMP:  51; 6HR MAX TEMP:  84;

$$

NEZ057>060-069>072-079>082-181900-
SOUTHWEST NEBRASKA

CITY           SKY/WX    TMP DP  RH WIND       PRES   REMARKS
NORTH PLATTE   SUNNY     82  63  52 NW6       30.04F
6HR MIN TEMP:  55; 6HR MAX TEMP:  82;

IMPERIAL       SUNNY     83  51  33 NW10      30.09S
6HR MIN TEMP:  53; 6HR MAX TEMP:  83;

LEXINGTON      SUNNY     80  65  60 NW6       30.02S
MCCOOK         SUNNY     83  61  47 N8        30.03F
6HR MIN TEMP:  58; 6HR MAX TEMP:  84;

OGALLALA       SUNNY     82  53  36 NW3       30.08F
$$

NEZ005>010-023>029-035>040-094-181900-
NORTH CENTRAL NEBRASKA

CITY           SKY/WX    TMP DP  RH WIND       PRES   REMARKS
AINSWORTH      SUNNY     81  58  45 NW8       29.99F
BROKEN BOW     SUNNY     85  55  35 N9        30.01S
6HR MIN TEMP:  58; 6HR MAX TEMP:  85;

O`NEILL        SUNNY     78  60  53 NW5       29.97S
ORD            SUNNY     81  59  47 W10       29.97S
6HR MIN TEMP:  56; 6HR MAX TEMP:  81;

THEDFORD       SUNNY     85  53  33 NW13      30.04S
$$

NEZ041-046>049-061>064-073>077-083>087-181900-
SOUTH CENTRAL NEBRASKA

CITY           SKY/WX    TMP DP  RH WIND       PRES   REMARKS
GRAND ISLAND   MOSUNNY   81  64  56 NW10      29.98F
6HR MIN TEMP:  59; 6HR MAX TEMP:  82;

AURORA         SUNNY     79  65  62 NW5       29.98S
HASTINGS       SUNNY     81  62  52 NW8       30.00S
6HR MIN TEMP:  62; 6HR MAX TEMP:  81;

HEBRON         SUNNY     84  63  49 W9        29.96S
HOLDREGE       SUNNY     78  63  58 NW7       30.01S
KEARNEY        SUNNY     81  63  54 NW8       30.00F
YORK           MOSUNNY   77  66  69 CALM      29.97F
$$

NEZ011>018-030>034-042>045-181900-
NORTHEAST NEBRASKA

CITY           SKY/WX    TMP DP  RH WIND       PRES   REMARKS
NORFOLK        SUNNY     78  63  59 W5        29.94S
6HR MIN TEMP:  61; 6HR MAX TEMP:  78;

ALBION         MOSUNNY   80  64  56 NW6       29.97S
BLAIR          SUNNY     79  63  57 W9        29.94F
COLUMBUS       SUNNY     78  65  63 NW7       29.96F
FREMONT        SUNNY     79  64  60 W6        29.94F
TEKAMAH        SUNNY     81  61  50 NW6       29.92F
6HR MIN TEMP:  63; 6HR MAX TEMP:  81;

WAYNE          SUNNY     77  65  65 CALM      29.94F
$$

NEZ050>053-065>068-078-088>093-181900-
SOUTHEAST NEBRASKA

CITY           SKY/WX    TMP DP  RH WIND       PRES   REMARKS
LINCOLN        SUNNY     83  63  50 W8        29.95F
6HR MIN TEMP:  66; 6HR MAX TEMP:  83;

OMAHA EPPLEY   MOSUNNY   84  61  45 VRB7      29.92F
6HR MIN TEMP:  67; 6HR MAX TEMP:  84;

BEATRICE       MOSUNNY   83  65  53 NW7       29.95S
FALLS CITY     SUNNY     87  65  47 NW10      29.91F
6HR MIN TEMP:  60; 6HR MAX TEMP:  88;

NEBRASKA CITY  PTSUNNY   80  66  61 CALM      29.95S
PLATTSMOUTH    MOSUNNY   81  60  49 NW3       29.94S
$$

NEZ044-045-051>053-067-181900-
OMAHA AREA

CITY           SKY/WX    TMP DP  RH WIND       PRES   REMARKS
OMAHA EPPLEY   MOSUNNY   84  61  45 VRB7      29.92F
6HR MIN TEMP:  67; 6HR MAX TEMP:  84;

BLAIR          SUNNY     79  63  57 W9        29.94F
FREMONT        SUNNY     79  64  60 W6        29.94F
MILLARD        SUNNY     83  62  48 NW3       29.93F
OFFUTT AFB     SUNNY     85  59  40 NW8       29.92F
PLATTSMOUTH    MOSUNNY   81  60  49 NW3       29.94S
WAHOO          FAIR      79  64  59 CALM      29.95S
$$




USA.gov is the U.S. government's official web portal to all federal, state and local government web resources and services.